Weather History for Pittsburgh Allegheny Co., PA

Change the Weather History Date:

Monday, February 17, 2014

  Actual Average Record
Temperature  
Mean Temperature 22 °F -  
Max Temperature 33 °F 41 °F 64 °F (2011)
Min Temperature 10 °F 25 °F 10 °F (2007)
Degree Days  
Heating Degree Days 44    
Moisture  
Dew Point 12 °F    
Average Humidity 68    
Maximum Humidity 88    
Minimum Humidity 35    
Precipitation  
Precipitation 0.05 in - - ()
Sea Level Pressure  
Sea Level Pressure 30.16 in    
Wind  
Wind Speed 8 mph (ESE)    
Max Wind Speed 22 mph    
Max Gust Speed 36 mph    
Visibility 8 miles    
Events Fog , Snow    
Averages and records for this station are not official NWS values.
T = Trace of Precipitation, MM = Missing Value Source: NWS Daily Summary

Daily Weather History Graph

Daily Weather History Graph

Search for Another Location

Airport:

Trip Planner

Search our weather history database for the weather conditions in past years. The results will help you decide how hot, cold, wet, or windy it might be!

Date:

Astronomy

Feb. 17, 2014 Rise Set
Actual Time 7:10 AM EST 5:57 PM EST
Civil Twilight 6:42 AM EST 6:25 PM EST
Nautical Twilight 6:10 AM EST 6:57 PM EST
Astronomical Twilight 5:39 AM EST 7:28 PM EST
Moon 8:51 PM EST (2/17) 8:09 AM EST (2/17)
Length of Visible Light 11h 42m
Length of Day
10h 47m
Waning Gibbous, 93% of the Moon is Illuminated
Feb 17
Waning Gibbous
Feb 22
Last Quarter
Mar 1
New
Mar 8
First Quarter
Mar 16
Full

Hourly Weather History & Observations

Time (EST) Temp. Windchill Dew Point Humidity Pressure Visibility Wind Dir Wind Speed Gust Speed Precip Events Conditions
12:24 AM 15.8 °F 3.4 °F 8.6 °F 73% 30.27 in 10.0 mi North 10.4 mph - N/A   Mostly Cloudy
12:53 AM 15.1 °F 6.4 °F 8.1 °F 74% 30.37 in 10.0 mi NNW 5.8 mph - N/A   Mostly Cloudy
1:00 AM 15.8 °F 8.6 °F 8.6 °F 73% 30.28 in 10.0 mi North 4.6 mph - N/A   Scattered Clouds
1:53 AM 14.0 °F 6.5 °F 8.1 °F 77% 30.37 in 10.0 mi NNW 4.6 mph - N/A   Clear
2:53 AM 14.0 °F 8.2 °F 8.1 °F 77% 30.36 in 10.0 mi North 3.5 mph - N/A   Scattered Clouds
3:02 AM 12.2 °F - 8.6 °F 85% 30.28 in 10.0 mi Calm Calm - N/A   Mostly Cloudy
3:12 AM 12.2 °F - 6.8 °F 79% 30.28 in 10.0 mi Calm Calm - N/A   Scattered Clouds
3:53 AM 10.9 °F - 6.1 °F 81% 30.37 in 10.0 mi Calm Calm - N/A   Clear
4:53 AM 12.0 °F 5.9 °F 8.1 °F 84% 30.37 in 10.0 mi East 3.5 mph - N/A   Clear
5:53 AM 12.0 °F - 7.0 °F 80% 30.40 in 8.0 mi Calm Calm - N/A   Clear
6:53 AM 10.0 °F - 6.1 °F 84% 30.41 in 7.0 mi Calm Calm - N/A   Clear
7:53 AM 10.9 °F 2.9 °F 8.1 °F 88% 30.43 in 4.0 mi SE 4.6 mph - N/A   Clear
8:53 AM 12.0 °F 4.1 °F 8.1 °F 84% 30.44 in 4.0 mi ESE 4.6 mph - N/A   Clear
9:53 AM 16.0 °F 5.3 °F 8.1 °F 71% 30.43 in 10.0 mi East 8.1 mph - N/A   Clear
10:53 AM 18.0 °F 7.7 °F 7.0 °F 62% 30.40 in 10.0 mi East 8.1 mph - N/A   Clear
11:53 AM 21.9 °F 11.7 °F 8.1 °F 55% 30.38 in 10.0 mi East 9.2 mph - N/A   Clear
12:53 PM 25.0 °F 17.1 °F 7.0 °F 46% 30.32 in 10.0 mi East 6.9 mph - N/A   Clear
1:53 PM 27.0 °F 17.3 °F 9.0 °F 47% 30.27 in 10.0 mi East 10.4 mph - N/A   Overcast
2:53 PM 28.9 °F 19.2 °F 9.0 °F 43% 30.20 in 10.0 mi East 11.5 mph - N/A   Overcast
3:53 PM 32.0 °F 23.0 °F 7.0 °F 35% 30.16 in 10.0 mi East 11.5 mph - N/A   Partly Cloudy
4:53 PM 33.1 °F 24.4 °F 8.1 °F 35% 30.11 in 10.0 mi ESE 11.5 mph - N/A   Overcast
5:53 PM 32.0 °F 20.8 °F 8.1 °F 37% 30.07 in 10.0 mi ESE 17.3 mph 25.3 mph N/A   Overcast
6:53 PM 30.9 °F 19.8 °F 10.9 °F 43% 30.00 in 10.0 mi ESE 16.1 mph 23.0 mph N/A   Overcast
7:53 PM 32.0 °F 21.2 °F 10.9 °F 42% 29.96 in 10.0 mi ESE 16.1 mph 24.2 mph N/A   Overcast
8:53 PM 32.0 °F 20.8 °F 12.0 °F 44% 29.94 in 4.0 mi SE 17.3 mph - N/A   Haze
9:32 PM 32.0 °F 19.8 °F 15.8 °F 51% 29.88 in 0.8 mi SSE 20.7 mph 33.4 mph 0.00 in Snow Snow
9:45 PM 28.4 °F 16.2 °F 24.8 °F 86% 29.86 in 0.8 mi SE 17.3 mph 35.7 mph 0.02 in Snow Snow
9:53 PM 28.0 °F 15.3 °F 25.0 °F 88% 29.92 in 0.5 mi SE 18.4 mph 27.6 mph 0.03 in Fog , Snow Light Snow
10:02 PM 28.4 °F 16.2 °F 24.8 °F 86% 29.83 in 1.2 mi SE 17.3 mph 31.1 mph 0.01 in Snow Light Snow
10:21 PM 28.4 °F 15.1 °F 24.8 °F 86% 29.81 in 3.0 mi SE 20.7 mph 33.4 mph 0.02 in   Overcast
10:29 PM 28.4 °F 15.1 °F 24.8 °F 86% 29.81 in 5.0 mi SE 20.7 mph 31.1 mph 0.02 in Snow Light Snow
10:53 PM 28.9 °F 15.4 °F 24.1 °F 82% 29.86 in 6.0 mi SE 21.9 mph 29.9 mph 0.02 in   Haze
11:11 PM 28.4 °F 15.8 °F 23.0 °F 80% 29.79 in 8.0 mi SE 18.4 mph 29.9 mph N/A   Overcast
11:53 PM 30.9 °F 22.8 °F 24.1 °F 76% 29.85 in 4.0 mi SSE 9.2 mph 17.3 mph 0.00 in Snow Light Snow